Weather History for KDRA - November, 2013

Change the Weather History Date:

Thursday, November 21, 2013

  Actual Average Record
Temperature  
Mean Temperature 48 °F -  
Max Temperature 55 °F 59 °F 75 °F (2006)
Min Temperature 41 °F 36 °F 34 °F (1998)
Degree Days  
Heating Degree Days 17    
Moisture  
Dew Point 39 °F    
Average Humidity 74    
Maximum Humidity 90    
Minimum Humidity 51    
Precipitation  
Precipitation 0.59 in - - ()
Sea Level Pressure  
Sea Level Pressure 29.87 in    
Wind  
Wind Speed 8 mph (NE)    
Max Wind Speed 23 mph    
Max Gust Speed 30 mph    
Visibility 9 miles    
Events Rain    
Averages and records for this station are not official NWS values.
T = Trace of Precipitation, MM = Missing Value Source: NWS Daily Summary

Daily Weather History Graph

Daily Weather History Graph

Search for Another Location

Airport or City:

Trip Planner

Search our weather history database for the weather conditions in past years. The results will help you decide how hot, cold, wet, or windy it might be!

Date:

Astronomy

Nov. 21, 2013 Rise Set
Actual Time 6:28 AM PST 4:31 PM PST
Civil Twilight 6:00 AM PST 4:59 PM PST
Nautical Twilight 5:28 AM PST 5:30 PM PST
Astronomical Twilight 4:58 AM PST 6:01 PM PST
Moon 8:11 PM PST (11/21) 9:38 AM PST (11/21)
Length of Visible Light 10h 59m
Length of Day
10h 03m
Waning Gibbous, 84% of the Moon is Illuminated
Nov 21
Waning Gibbous
Nov 25
Last Quarter
Dec 2
New
Dec 9
First Quarter
Dec 17
Full

Hourly Weather History & Observations

Time (PST) Temp. Windchill Dew Point Humidity Pressure Visibility Wind Dir Wind Speed Gust Speed Precip Events Conditions
12:52 AM 46.9 °F - 34.0 °F 61% 29.80 in 10.0 mi East 4.6 mph - N/A   Overcast
1:52 AM 50.0 °F - 35.1 °F 57% 29.73 in 10.0 mi Variable 3.5 mph - N/A   Overcast
2:52 AM 50.0 °F - 37.0 °F 61% 29.72 in 10.0 mi Variable 3.5 mph - N/A   Overcast
3:52 AM 51.1 °F - 39.9 °F 66% 29.72 in 10.0 mi NNE 4.6 mph - N/A   Overcast
4:52 AM 51.1 °F - 39.9 °F 66% 29.73 in 10.0 mi Calm Calm - N/A   Mostly Cloudy
6:52 AM 52.0 °F - 41.0 °F 66% 29.78 in 10.0 mi Calm Calm - N/A   Overcast
8:52 AM 53.1 °F - 42.1 °F 66% 29.81 in 10.0 mi WSW 6.9 mph - N/A   Overcast
9:52 AM 55.0 °F - 42.1 °F 62% 29.81 in 10.0 mi SW 6.9 mph - N/A   Clear
10:52 AM 54.0 °F - 43.0 °F 66% 29.81 in 10.0 mi WSW 9.2 mph - N/A   Overcast
11:39 AM 52.0 °F - 39.0 °F 61% 29.87 in 10.0 mi NNE 11.5 mph - N/A   Overcast
11:52 AM 50.0 °F - 42.1 °F 74% 29.82 in 10.0 mi NNE 15.0 mph - 0.00 in Rain Light Rain
12:17 PM 48.0 °F - 44.1 °F 86% 29.87 in 5.0 mi NE 9.2 mph - 0.06 in Rain Rain
12:52 PM 48.0 °F - 44.1 °F 86% 29.83 in 5.0 mi NNE 8.1 mph - 0.14 in Rain Rain
1:52 PM 48.0 °F - 44.1 °F 86% 29.83 in 7.0 mi NNE 9.2 mph - 0.13 in Rain Rain
2:52 PM 46.9 °F - 44.1 °F 90% 29.85 in 5.0 mi NE 5.8 mph - 0.14 in Rain Rain
3:52 PM 46.0 °F 41.4 °F 41.0 °F 83% 29.86 in 4.0 mi NE 9.2 mph - 0.18 in Rain Rain
4:52 PM 46.0 °F 43.1 °F 42.1 °F 86% 29.87 in 10.0 mi ENE 5.8 mph - 0.07 in Rain Light Rain
5:52 PM 45.0 °F 39.3 °F 41.0 °F 86% 29.91 in 10.0 mi NE 11.5 mph - 0.06 in Rain Light Rain
6:00 PM 45.0 °F 37.9 °F 41.0 °F 86% 29.95 in 10.0 mi NE 16.1 mph - 0.00 in Rain Light Rain
6:10 PM 45.0 °F 38.5 °F 39.9 °F 82% 29.96 in 10.0 mi NNE 13.8 mph - 0.01 in Rain Light Rain
6:52 PM 43.0 °F 34.0 °F 39.0 °F 86% 29.91 in 10.0 mi NNE 21.9 mph 29.9 mph 0.03 in Rain Light Rain
7:52 PM 42.1 °F 32.6 °F 37.0 °F 82% 29.94 in 10.0 mi NNE 23.0 mph - 0.00 in   Overcast
8:52 PM 42.1 °F 34.9 °F 36.0 °F 79% 29.95 in 10.0 mi NE 13.8 mph - 0.00 in   Overcast
9:52 PM 42.1 °F 32.8 °F 34.0 °F 73% 29.96 in 10.0 mi NE 21.9 mph 29.9 mph N/A   Overcast
10:32 PM 42.1 °F 34.2 °F 34.0 °F 73% 30.02 in 10.0 mi NE 16.1 mph - N/A   Overcast
10:52 PM 41.0 °F 32.5 °F 34.0 °F 76% 29.99 in 10.0 mi NE 17.3 mph - N/A   Overcast
11:02 PM 41.0 °F 32.8 °F 34.0 °F 76% 30.02 in 10.0 mi NE 16.1 mph - N/A   Overcast
11:11 PM 41.0 °F 32.8 °F 34.0 °F 76% 30.02 in 10.0 mi NE 16.1 mph - N/A   Overcast
11:34 PM 41.0 °F 33.9 °F 34.0 °F 76% 30.03 in 10.0 mi ENE 12.7 mph 21.9 mph 0.00 in   Overcast
11:52 PM 41.0 °F 33.5 °F 35.1 °F 79% 30.00 in 10.0 mi ENE 13.8 mph - 0.00 in   Overcast